Temperature
16 16 17 17 14 11 13 14 14 15 15 15 16 16 14 14 15 15 15 15 15 15 14 14 14 14 14 14 14 14 14 14 14 14 14 14 14 14 14 14 14 14 14 14 14 14 14 14 14
16 16 17 16 12 13 13 14 14 14 15 15 15 15 14 14 14 15 15 15 14 14 14 14 14 14 14 14 14 14 14 14 14 14 14 14 14 14 14 14 14 14 14 14 14 14 14 14 14
16 16 16 11 11 12 15 15 14 14 15 15 15 15 14 14 14 14 14 14 14 14 14 14 14 14 14 14 14 14 14 14 14 14 14 14 14 14 14 14 14 14 14 14 14 14 14 14 14
16 16 15 11 13 12 13 14 13 14 15 15 15 14 13 14 14 14 14 14 14 14 14 14 14 14 14 14 14 14 14 14 14 14 14 14 14 14 14 14 14 14 14 14 14 14 14 14 14
16 16 11 11 12 12 12 13 13 13 14 14 14 13 13 14 14 14 14 14 14 14 13 13 13 13 13 13 13 14 13 13 13 13 13 14 14 14 14 14 14 14 14 14 14 14 14 14 14
16 12 10 11 12 12 12 13 13 13 13 13 13 13 13 13 14 14 13 13 13 13 13 13 13 13 13 13 13 13 13 13 13 13 13 13 13 13 14 14 14 14 14 14 13 13 14 13 13
14 10 11 12 12 12 13 13 13 12 12 13 13 12 13 13 13 13 13 13 13 13 13 13 13 13 13 13 13 13 13 13 13 13 13 13 13 13 13 13 13 13 13 13 13 13 13 13 13
14 10 11 11 12 12 13 13 13 13 12 13 13 12 12 13 13 13 13 13 12 12 12 12 13 13 13 13 13 13 13 13 13 13 13 13 13 13 13 13 13 13 13 13 13 13 13 13 13
14 9 10 11 12 12 12 12 13 13 12 12 12 12 12 13 12 12 12 12 12 12 12 12 12 12 12 12 12 12 12 12 12 12 12 12 12 12 13 13 13 13 13 13 13 13 13 13 13
12 9 11 11 12 12 12 12 12 12 11 11 12 12 12 12 12 12 12 12 12 12 12 12 12 12 12 12 12 12 12 12 12 12 12 12 12 12 12 12 12 12 12 12 12 12 12 12 12
11 10 11 11 12 12 11 11 11 11 10 11 11 12 12 12 12 12 12 12 12 12 12 12 12 12 12 12 12 12 12 12 12 12 12 12 12 12 12 12 12 12 12 12 12 12 12 12 12
10 10 11 11 12 11 11 11 10 10 10 11 11 11 11 11 11 11 11 11 11 11 11 11 11 11 11 11 11 11 11 11 11 11 11 11 11 12 12 12 11 11 12 11 11 11 11 11 12
10 10 11 11 11 11 10 10 9 9 10 11 11 11 11 11 10 10 10 10 10 11 11 11 11 11 11 11 11 11 11 11 11 11 11 11 11 11 11 11 11 11 11 11 11 11 11 11 11
10 10 10 10 10 10 9 9 8 9 10 10 10 10 10 10 10 10 10 10 10 10 10 10 10 10 10 10 10 10 10 10 10 10 11 11 11 11 11 11 11 11 11 11 11 11 11 11 11
10 9 9 9 9 9 9 8 7 9 9 9 9 9 9 9 9 9 9 9 9 9 9 10 10 10 10 10 10 10 10 10 10 10 10 10 10 10 10 10 10 10 10 10 10 10 10 10 10
9 9 9 9 9 9 9 8 7 8 8 7 8 8 8 8 8 8 8 9 9 9 9 9 9 9 9 9 9 9 9 10 10 10 10 10 10 10 10 10 10 10 10 10 10 10 10 10 10
8 8 8 8 8 8 8 7 7 7 7 6 6 7 7 7 8 8 8 8 8 9 9 9 9 9 9 9 9 9 9 9 9 9 9 9 9 9 9 9 9 9 9 9 9 9 10 10 10
8 8 8 8 7 7 6 5 5 6 6 5 5 6 6 6 6 7 8 8 8 8 8 8 8 8 8 8 8 8 9 9 9 9 9 9 9 9 9 9 9 9 9 9 9 9 9 9 9
8 7 7 7 7 6 5 5 5 5 5 4 4 5 5 5 6 6 7 7 7 7 7 7 7 8 7 8 8 8 8 8 8 8 8 8 8 8 9 8 9 9 9 9 9 9 9 9 9
7 7 6 6 6 6 5 4 4 4 4 4 4 4 4 4 5 6 6 6 6 7 7 7 7 7 7 7 7 7 7 7 7 7 7 8 8 8 8 8 8 8 8 8 8 8 8 8 8
6 6 6 6 5 5 5 4 4 4 4 4 4 4 4 4 4 5 5 5 6 6 6 6 6 6 6 6 6 6 6 6 6 7 7 7 7 7 7 8 8 8 8 8 8 8 8 8 8
6 6 6 5 4 4 5 4 4 3 3 3 3 3 3 3 3 4 4 5 5 5 5 5 5 5 5 5 5 5 5 6 6 6 6 6 6 7 7 7 7 7 7 7 7 7 7 7 7
5 5 5 5 4 3 3 3 3 3 3 3 2 2 3 3 3 3 3 4 4 4 4 5 5 5 5 5 5 5 5 5 5 5 5 6 6 6 6 6 6 7 7 7 7 7 7 7 7
5 4 4 3 3 3 3 3 3 2 2 2 2 2 2 2 2 3 3 3 3 3 4 4 4 4 4 4 4 4 4 4 5 5 5 5 6 6 6 6 6 6 6 6 6 6 6 6 7
4 4 4 4 3 3 3 2 2 2 1 1 1 1 2 2 2 2 2 3 3 3 3 3 3 3 3 3 4 4 4 4 4 4 4 5 5 5 5 5 5 5 6 6 6 6 6 6 6
4 4 4 4 3 3 2 2 1 1 1 1 1 1 1 2 2 1 1 2 2 2 2 2 2 2 2 3 3 3 3 3 3 4 4 4 4 4 5 5 5 5 5 5 5 6 6 6 6
4 3 3 2 1 1 1 1 0 1 1 1 1 1 1 1 1 1 1 1 1 2 2 2 2 2 2 2 2 2 2 3 3 3 3 3 4 4 4 4 4 4 5 5 5 5 5 5 5
3 2 1 2 2 2 2 1 1 0 0 -0 -1 -0 0 1 0 1 1 1 1 1 1 1 1 1 1 1 1 1 2 2 2 2 3 3 3 3 4 4 4 4 4 4 4 5 5 5 5
2 2 1 1 1 1 1 1 0 -0 -0 -1 -1 -0 -0 -0 -0 -0 -0 0 0 0 0 0 0 1 1 1 1 1 1 1 1 2 2 2 3 3 3 3 3 4 4 4 4 4 4 4 4
1 1 0 1 0 -0 -0 0 0 -1 -1 -1 -1 -1 -1 -1 -1 -0 -0 -0 -0 -0 -0 -0 -0 -0 -0 -0 0 0 0 0 1 1 1 2 2 2 2 3 3 3 3 4 4 4 4 4 4
Wind_Speed
6 3 3 4 6 5 2 4 2 2 1 0 1 4 5 4 3 1 2 2 4 5 7 8 8 8 8 8 8 8 7 7 7 7 7 7 7 7 7 7 8 9 9 10 10 11 12 12 12
2 2 5 5 5 1 4 4 3 3 1 2 2 3 3 1 1 1 1 0 4 6 6 7 8 8 8 7 7 7 7 7 7 6 7 7 7 7 7 6 7 8 9 10 10 11 11 11 11
2 5 5 5 4 5 3 2 3 2 1 1 2 2 1 0 1 1 1 2 4 5 5 6 8 8 7 7 6 6 6 6 6 6 6 7 7 7 7 7 8 8 9 9 9 10 10 10 10
4 5 6 5 2 4 3 3 2 1 2 2 2 2 1 2 2 1 2 5 6 4 5 5 6 6 7 6 6 5 5 5 5 5 5 6 6 6 6 6 7 8 8 8 8 9 9 9 10
5 5 5 2 3 3 3 3 1 1 0 1 2 2 1 4 4 3 4 5 6 4 4 5 6 6 6 5 5 4 4 4 4 4 5 5 5 5 5 6 7 7 7 8 8 8 8 8 9
5 5 4 2 3 4 3 2 1 0 1 1 2 2 1 3 4 3 4 4 4 4 4 5 5 6 5 5 4 4 3 3 3 4 4 4 4 5 5 5 6 6 7 7 7 7 8 8 8
5 5 4 3 2 3 3 1 1 0 1 1 1 2 2 2 2 2 4 4 4 4 5 5 5 5 4 4 4 3 3 2 3 3 3 4 4 4 4 4 5 6 6 6 7 7 7 7 8
5 5 2 1 2 3 3 1 1 1 1 1 3 3 3 3 1 3 5 5 4 4 4 4 5 4 4 3 3 3 3 3 2 3 3 4 4 4 4 4 5 5 6 6 6 6 6 7 8
4 4 2 3 4 2 2 2 3 1 2 2 1 0 2 1 4 5 4 3 3 3 3 3 4 4 3 3 3 2 3 3 3 3 3 4 4 4 3 3 4 5 5 6 6 6 6 7 7
5 3 4 3 3 1 1 1 2 2 2 2 2 3 3 4 5 4 2 1 0 0 1 2 3 3 3 3 3 3 3 3 3 3 4 4 5 5 4 4 3 5 5 5 6 6 6 6 7
3 4 2 2 1 1 0 1 2 1 2 3 3 2 2 4 3 3 2 1 2 1 1 2 2 2 3 3 3 3 3 3 3 3 4 4 5 5 4 4 3 4 5 5 5 6 6 6 6
2 1 1 2 1 1 1 1 1 1 4 3 3 2 3 4 4 3 3 2 0 1 1 2 2 2 2 2 2 2 2 2 2 2 3 4 3 3 3 3 3 3 4 4 4 5 5 6 6
1 1 1 1 2 1 0 1 1 3 5 3 3 3 3 3 2 2 1 0 1 1 1 1 2 2 2 2 1 2 1 1 1 2 3 3 3 2 2 2 3 3 3 4 4 4 4 4 5
0 1 3 3 2 1 0 1 0 4 3 3 4 2 1 1 1 1 1 1 1 1 2 1 0 2 2 2 2 1 1 1 1 1 2 2 3 3 2 2 2 2 3 3 4 4 3 3 3
1 3 5 3 2 1 1 4 2 4 2 4 3 2 2 2 1 1 2 2 2 2 1 1 0 2 2 2 1 1 0 1 1 1 1 2 3 3 3 2 1 1 2 3 3 4 4 3 3
3 4 3 4 3 2 2 5 4 3 2 3 3 3 3 3 3 3 3 2 2 1 1 1 1 1 1 2 1 1 1 1 0 1 1 2 3 3 3 2 2 2 2 2 2 2 3 2 2
5 2 3 5 3 2 1 5 5 5 2 3 4 4 3 4 6 6 5 3 2 1 1 0 1 1 1 2 2 2 1 1 1 0 0 1 2 3 3 2 2 3 3 2 2 2 2 2 2
2 2 3 5 4 3 2 5 7 5 2 2 4 4 4 5 6 6 5 4 3 2 1 1 2 2 2 2 3 3 2 2 1 1 1 1 2 3 3 2 2 3 2 1 2 2 2 2 3
1 2 4 5 3 3 4 6 7 5 3 4 4 4 4 5 5 6 7 5 4 4 3 2 2 2 2 2 2 2 2 2 2 2 1 1 1 2 3 2 2 2 2 2 3 3 3 2 2
1 3 4 5 4 2 4 5 4 3 1 2 3 4 4 6 7 8 8 7 5 4 3 3 2 2 1 1 1 1 2 1 2 2 2 1 1 1 2 2 2 3 2 2 3 3 3 1 2
2 3 4 6 6 3 3 5 2 2 2 3 4 4 4 4 5 7 7 6 6 6 4 3 3 3 2 2 2 2 2 2 2 2 2 2 1 1 1 3 3 3 3 4 4 4 4 3 1
4 3 4 4 4 5 2 5 4 2 3 5 6 6 6 5 5 6 6 6 6 5 5 4 3 3 3 2 1 1 1 2 2 2 2 2 2 1 1 2 3 3 3 4 4 3 3 5 3
4 3 3 3 3 3 2 3 6 2 3 4 5 6 6 5 5 6 6 5 5 5 5 4 4 4 4 3 1 1 2 3 3 2 2 2 2 2 2 2 2 2 2 4 4 4 3 4 4
2 2 2 3 2 3 3 4 5 2 2 3 5 6 6 6 6 6 7 6 6 6 5 5 4 4 4 3 2 1 2 3 3 3 3 2 2 2 2 2 2 2 2 3 4 4 4 4 4
4 4 4 5 2 5 1 3 5 3 2 1 3 5 5 5 6 7 8 8 8 7 6 5 5 5 4 4 3 3 3 3 3 3 3 3 2 3 3 3 2 2 3 3 4 4 4 4 5
1 3 3 3 5 6 3 4 3 1 2 2 2 4 5 6 6 6 7 6 6 7 6 6 6 6 5 4 4 4 3 3 3 4 3 4 4 4 4 4 3 3 3 4 4 4 4 4 5
1 1 2 2 2 5 5 4 4 1 4 5 6 6 7 7 7 6 7 7 6 6 6 5 5 6 6 5 5 4 4 4 4 4 4 4 4 4 3 3 3 3 3 3 4 4 4 4 5
1 3 3 2 3 5 5 5 4 3 4 5 6 7 7 7 7 7 7 7 6 6 5 5 4 5 6 6 5 5 5 5 5 4 4 5 5 4 3 4 4 3 3 3 3 4 4 5 4
1 1 2 2 2 3 5 5 2 3 2 4 6 7 7 8 8 8 7 7 7 6 5 5 6 6 6 6 6 5 5 5 5 4 5 5 5 4 4 4 4 4 4 4 4 4 5 5 5
2 3 4 2 4 4 4 6 1 1 2 5 7 7 8 8 8 8 8 8 7 6 6 6 6 6 7 6 6 5 5 5 5 5 5 5 5 5 4 4 4 4 4 4 5 5 5 5 6
Wind_Direction
356 34 66 55 56 53 246 257 241 267 231 310 77 117 137 145 161 200 337 105 122 137 154 156 150 144 139 131 126 122 118 113 108 107 104 102 102 102 98 96 95 94 94 94 93 92 93 93 91
353 45 54 60 92 116 267 255 233 233 222 119 76 85 89 68 354 56 10 172 126 132 141 147 144 139 137 133 128 124 124 120 116 112 110 106 101 102 100 99 98 97 96 95 94 93 95 95 93
62 50 79 77 121 180 225 250 233 293 7 104 82 59 101 295 332 242 299 130 108 112 128 142 142 139 135 132 130 125 122 120 120 116 112 108 100 99 98 97 101 98 98 99 98 97 96 97 96
72 47 57 79 183 219 232 276 249 329 22 48 115 76 77 22 305 267 102 108 104 90 105 124 130 135 134 132 130 125 124 124 118 118 116 114 110 105 100 100 106 102 101 102 102 100 97 100 98
56 74 68 43 254 263 264 278 207 150 273 15 117 136 288 353 9 76 103 113 115 92 92 112 120 120 124 130 135 131 128 130 127 123 122 120 120 116 108 106 112 111 108 105 107 104 100 99 98
55 67 94 217 260 288 293 295 151 79 5 46 114 143 253 9 39 75 99 106 100 92 79 90 109 112 116 122 131 134 140 137 129 122 112 115 122 120 114 115 119 115 109 106 106 106 102 101 99
102 101 153 188 253 303 313 344 100 75 29 295 171 142 303 346 1 79 91 90 79 76 69 65 78 96 108 116 121 123 130 133 129 127 116 109 122 131 123 121 120 118 112 106 103 103 104 103 101
115 108 131 197 203 261 320 27 42 116 247 350 118 138 270 283 60 82 79 75 70 59 51 48 57 70 78 91 111 112 110 112 121 122 113 109 111 121 129 125 122 120 115 109 105 100 99 99 100
84 83 180 210 195 242 352 24 354 22 73 52 58 193 309 106 105 86 64 48 48 49 38 37 44 52 63 79 82 84 93 94 95 103 111 105 98 98 106 116 123 126 119 113 107 101 96 96 95
81 142 212 222 197 202 345 11 329 28 20 351 340 3 43 99 114 112 105 134 163 340 11 33 37 47 57 69 69 69 71 72 78 89 94 99 101 97 92 94 111 121 117 112 106 100 90 88 88
113 175 218 270 236 175 318 332 351 109 307 252 253 280 104 108 119 137 157 185 221 247 12 22 26 52 61 62 70 65 67 65 65 84 97 99 98 94 89 82 80 97 105 99 95 90 85 82 87
119 249 220 291 351 25 250 285 358 164 242 270 260 198 145 141 166 189 204 224 339 27 355 8 22 39 51 69 70 80 72 68 61 86 104 105 94 88 92 93 88 90 101 102 99 97 93 85 83
116 305 7 349 2 8 55 254 234 283 287 327 25 91 144 166 198 225 239 339 25 337 323 342 18 35 41 54 55 70 69 80 92 99 109 119 115 114 103 98 100 100 108 118 114 106 97 87 76
314 324 320 323 340 349 155 300 85 287 333 26 45 56 151 189 216 357 351 322 302 282 285 309 16 27 40 34 24 40 85 103 103 103 121 133 133 129 129 114 105 114 124 128 131 123 111 95 90
26 6 354 351 350 342 38 337 253 284 11 25 14 6 1 334 345 298 276 270 267 272 274 284 268 33 28 18 19 53 79 106 102 126 148 151 149 142 134 135 138 135 144 131 120 118 110 103 94
40 34 348 329 5 356 65 287 301 334 43 1 344 351 354 348 348 331 320 304 294 299 300 293 5 30 10 9 16 31 64 85 100 158 168 170 165 154 136 139 163 159 142 128 133 137 123 113 106
30 7 303 313 355 17 92 260 301 352 33 348 338 342 353 357 355 348 344 324 317 286 301 337 11 34 6 14 22 25 47 40 26 26 184 189 175 162 144 150 156 150 133 140 154 137 135 133 119
284 283 284 287 326 0 283 268 299 331 14 349 342 351 359 358 342 344 350 352 358 358 17 32 27 28 28 28 27 27 28 17 21 354 273 223 190 173 155 150 156 140 148 160 142 127 114 129 128
213 239 274 277 318 334 274 282 299 317 356 356 353 357 354 341 343 2 6 6 20 23 24 19 22 24 42 30 14 6 335 327 334 338 319 265 214 182 162 157 160 155 172 178 158 136 122 112 117
262 283 290 299 331 311 287 284 291 322 355 355 352 351 351 357 4 5 9 12 10 10 8 11 3 3 8 342 327 336 327 309 317 347 351 337 273 187 182 169 181 176 169 163 159 144 134 120 131
297 244 274 289 325 329 316 306 296 342 27 22 11 360 3 11 359 358 3 3 5 3 357 356 347 346 338 2 26 19 12 11 6 338 317 314 289 230 193 187 184 189 179 182 181 170 154 159 179
279 272 266 285 319 299 359 295 279 295 347 0 358 360 356 357 358 1 2 359 354 348 352 353 355 2 356 7 19 45 343 310 291 288 283 301 279 256 230 199 189 194 187 183 189 182 169 159 169
252 293 272 265 232 290 281 231 285 328 327 333 346 352 350 354 359 356 352 346 348 348 354 354 356 1 1 2 348 327 333 322 322 320 305 295 303 269 237 221 200 199 193 190 188 182 180 176 175
292 359 22 55 87 280 237 198 280 277 272 314 340 346 349 353 360 357 354 356 359 358 359 358 357 353 353 347 339 325 315 321 325 319 304 300 300 298 280 243 223 213 205 199 194 190 187 190 184
39 50 1 346 340 257 260 216 252 272 301 316 325 334 341 353 359 359 357 355 355 355 354 351 348 342 342 335 324 312 295 282 271 282 279 282 286 280 266 261 241 233 220 209 191 188 194 191 189
333 130 164 251 265 289 314 243 249 298 343 347 348 344 350 353 354 354 351 347 344 345 347 346 341 336 334 325 316 312 306 294 282 277 274 267 259 256 261 257 247 239 225 214 196 191 198 195 196
98 160 168 170 274 276 272 280 292 1 12 9 2 358 348 342 344 347 349 349 344 340 337 337 334 331 328 321 320 316 307 302 298 290 280 279 274 272 264 254 247 238 228 218 199 202 202 196 202
119 142 97 152 270 275 280 267 254 293 326 346 349 343 334 335 338 339 340 340 339 335 331 337 335 327 322 319 313 312 301 297 293 294 286 283 281 277 262 253 243 234 226 219 209 209 203 199 205
62 112 135 179 203 236 278 270 228 233 283 317 319 321 321 326 326 326 328 329 330 336 338 338 337 335 329 323 319 319 315 309 301 299 294 286 286 277 260 252 239 230 224 216 213 218 206 204 207
184 180 157 204 254 228 258 269 275 214 316 319 314 318 322 322 320 319 321 326 332 336 335 333 332 329 323 317 314 315 318 319 315 308 304 299 291 286 272 263 246 233 228 217 212 219 215 209 209
Height
1506 1507 1509 1511 1516 1529 1530 1524 1520 1518 1517 1516 1516 1516 1518 1520 1523 1527 1522 1520 1521 1523 1524 1526 1528 1529 1530 1531 1532 1533 1534 1535 1536 1536 1537 1538 1538 1539 1539 1540 1541 1541 1542 1543 1543 1544 1545 1545 1546
1507 1508 1511 1512 1524 1535 1531 1522 1520 1517 1516 1516 1516 1517 1518 1519 1520 1521 1520 1521 1522 1523 1525 1526 1528 1529 1530 1531 1532 1533 1534 1535 1536 1536 1537 1538 1538 1539 1540 1540 1541 1542 1542 1543 1544 1545 1545 1546 1547
1507 1509 1511 1516 1528 1532 1524 1518 1517 1516 1516 1516 1517 1517 1519 1520 1520 1520 1521 1521 1522 1524 1525 1527 1528 1529 1530 1531 1532 1533 1534 1534 1535 1536 1537 1538 1538 1539 1540 1540 1541 1542 1543 1543 1544 1545 1546 1547 1547
1508 1510 1512 1522 1525 1524 1521 1517 1516 1515 1515 1516 1517 1518 1519 1521 1521 1521 1521 1522 1523 1524 1525 1526 1528 1529 1530 1531 1532 1533 1533 1534 1535 1536 1537 1537 1538 1539 1540 1540 1541 1542 1543 1543 1544 1545 1546 1547 1548
1509 1510 1519 1527 1524 1521 1518 1516 1515 1515 1516 1516 1517 1518 1519 1520 1520 1520 1521 1522 1523 1524 1525 1526 1527 1528 1529 1530 1531 1532 1533 1534 1535 1535 1536 1537 1538 1539 1539 1540 1541 1542 1543 1543 1544 1545 1546 1547 1548
1510 1512 1526 1530 1524 1520 1518 1516 1516 1516 1516 1517 1517 1518 1519 1520 1520 1520 1521 1522 1523 1524 1525 1526 1527 1528 1529 1530 1530 1531 1532 1533 1534 1535 1535 1536 1537 1538 1539 1540 1541 1541 1542 1543 1544 1545 1546 1547 1548
1511 1518 1525 1525 1524 1521 1518 1516 1516 1516 1517 1518 1518 1519 1518 1519 1519 1520 1521 1523 1523 1524 1525 1526 1527 1527 1528 1529 1530 1531 1531 1532 1533 1534 1535 1536 1537 1538 1539 1539 1540 1541 1542 1543 1544 1544 1545 1546 1547
1511 1517 1522 1525 1523 1520 1517 1516 1517 1517 1517 1518 1519 1519 1519 1519 1519 1520 1521 1522 1523 1524 1525 1525 1526 1527 1527 1528 1529 1530 1530 1531 1532 1533 1534 1535 1536 1537 1538 1539 1539 1540 1541 1542 1543 1544 1545 1546 1547
1511 1521 1526 1523 1521 1519 1517 1517 1517 1518 1518 1518 1519 1519 1520 1519 1519 1519 1520 1521 1521 1522 1523 1524 1525 1526 1526 1527 1528 1528 1529 1530 1531 1531 1532 1533 1534 1535 1536 1537 1538 1539 1540 1541 1542 1543 1544 1545 1546
1512 1523 1521 1518 1517 1517 1517 1517 1517 1518 1518 1518 1518 1518 1518 1518 1517 1518 1518 1518 1519 1520 1522 1522 1523 1524 1525 1526 1526 1527 1528 1528 1529 1530 1531 1532 1533 1534 1535 1536 1537 1538 1539 1540 1541 1542 1544 1545 1546
1514 1519 1517 1517 1516 1516 1517 1517 1517 1517 1519 1518 1518 1517 1517 1516 1516 1517 1517 1518 1519 1520 1520 1521 1522 1523 1523 1524 1525 1525 1526 1527 1527 1528 1529 1530 1531 1532 1533 1534 1535 1537 1538 1539 1540 1541 1542 1544 1545
1515 1516 1516 1516 1516 1516 1516 1517 1517 1517 1518 1518 1517 1516 1515 1515 1515 1515 1516 1517 1518 1518 1519 1520 1520 1521 1521 1522 1523 1524 1524 1525 1526 1527 1527 1528 1529 1530 1531 1533 1534 1535 1536 1537 1539 1540 1541 1542 1544
1516 1517 1517 1516 1516 1516 1516 1517 1518 1517 1517 1516 1516 1515 1514 1514 1515 1515 1516 1517 1517 1517 1518 1518 1519 1519 1520 1520 1521 1522 1522 1523 1524 1525 1526 1526 1527 1528 1529 1530 1532 1533 1534 1536 1537 1538 1540 1541 1542
1516 1516 1516 1516 1515 1516 1516 1517 1518 1516 1516 1515 1514 1514 1514 1513 1514 1514 1514 1514 1515 1515 1516 1516 1517 1517 1518 1518 1519 1519 1520 1521 1522 1523 1524 1525 1525 1526 1527 1528 1530 1531 1532 1534 1535 1536 1538 1539 1540
1516 1517 1516 1516 1515 1516 1517 1518 1518 1516 1515 1514 1513 1513 1513 1513 1512 1512 1512 1513 1513 1513 1514 1514 1515 1515 1516 1516 1517 1517 1518 1519 1520 1521 1522 1523 1523 1524 1525 1526 1527 1529 1530 1532 1533 1534 1536 1537 1538
1517 1520 1522 1518 1517 1516 1520 1522 1517 1516 1514 1513 1513 1512 1511 1511 1511 1511 1511 1511 1511 1512 1512 1512 1513 1513 1514 1514 1515 1515 1516 1517 1518 1519 1519 1520 1521 1522 1523 1524 1525 1527 1528 1529 1531 1532 1533 1535 1536
1524 1526 1524 1522 1518 1518 1520 1521 1517 1515 1514 1513 1512 1511 1510 1509 1509 1509 1509 1509 1509 1509 1510 1510 1510 1511 1511 1512 1512 1513 1514 1515 1515 1516 1517 1518 1519 1519 1520 1521 1522 1524 1525 1527 1528 1530 1531 1533 1534
1527 1527 1526 1524 1520 1520 1521 1521 1517 1515 1514 1513 1512 1511 1509 1508 1508 1508 1507 1507 1507 1507 1507 1508 1508 1508 1509 1509 1510 1510 1511 1512 1513 1513 1514 1515 1516 1517 1518 1519 1520 1521 1523 1524 1526 1527 1529 1530 1532
1525 1527 1528 1525 1521 1522 1522 1521 1517 1515 1514 1512 1511 1510 1509 1508 1508 1507 1506 1505 1505 1505 1505 1505 1505 1506 1506 1506 1506 1507 1507 1508 1509 1510 1511 1512 1513 1514 1515 1516 1517 1518 1520 1521 1523 1525 1526 1528 1530
1526 1527 1528 1525 1522 1522 1522 1521 1517 1514 1514 1513 1511 1510 1509 1507 1506 1505 1504 1503 1503 1503 1503 1503 1503 1503 1503 1504 1505 1505 1506 1506 1507 1508 1508 1509 1510 1511 1512 1513 1514 1515 1517 1518 1520 1522 1523 1525 1527
1527 1529 1528 1527 1524 1522 1523 1520 1518 1515 1514 1512 1511 1510 1509 1508 1506 1505 1504 1503 1502 1502 1501 1501 1502 1502 1502 1502 1502 1503 1503 1504 1504 1505 1505 1506 1507 1508 1509 1510 1511 1512 1514 1515 1517 1519 1520 1522 1524
1528 1526 1526 1526 1529 1530 1526 1528 1519 1516 1515 1513 1512 1510 1509 1508 1506 1505 1503 1502 1502 1501 1501 1500 1500 1500 1500 1500 1500 1500 1500 1501 1501 1502 1503 1504 1504 1505 1506 1507 1508 1509 1510 1512 1514 1516 1517 1519 1521
1527 1525 1525 1526 1528 1531 1529 1531 1522 1518 1516 1515 1513 1512 1510 1508 1506 1505 1504 1503 1502 1501 1500 1499 1498 1498 1498 1498 1498 1498 1498 1499 1499 1500 1500 1501 1501 1502 1503 1504 1505 1506 1507 1509 1510 1512 1514 1516 1518
1526 1526 1526 1529 1531 1532 1527 1531 1524 1521 1518 1516 1514 1512 1510 1508 1507 1505 1504 1502 1501 1500 1499 1498 1497 1496 1496 1496 1496 1496 1496 1496 1496 1496 1496 1497 1498 1498 1499 1500 1501 1503 1504 1505 1507 1508 1510 1512 1514
1528 1531 1535 1534 1536 1529 1526 1528 1526 1519 1517 1516 1515 1513 1511 1509 1507 1505 1503 1501 1500 1499 1497 1496 1495 1494 1494 1493 1493 1493 1493 1493 1492 1493 1493 1493 1494 1495 1496 1497 1498 1499 1500 1501 1503 1504 1506 1508 1510
1531 1532 1539 1540 1538 1532 1529 1529 1524 1519 1517 1516 1515 1513 1511 1509 1507 1505 1503 1501 1500 1498 1496 1495 1493 1492 1491 1491 1490 1490 1490 1489 1489 1490 1490 1490 1491 1491 1492 1493 1494 1495 1496 1497 1499 1500 1502 1504 1505
1531 1535 1535 1542 1542 1541 1532 1529 1524 1518 1516 1515 1514 1513 1511 1509 1507 1505 1503 1501 1499 1497 1495 1494 1492 1490 1489 1488 1487 1487 1486 1486 1486 1486 1486 1486 1487 1487 1488 1489 1490 1491 1492 1493 1494 1496 1498 1499 1501
1532 1535 1540 1540 1539 1537 1529 1529 1524 1520 1518 1517 1515 1513 1511 1509 1507 1504 1502 1500 1498 1496 1494 1492 1490 1488 1486 1485 1484 1483 1483 1482 1482 1482 1482 1482 1482 1483 1483 1484 1485 1486 1487 1488 1490 1491 1493 1495 1496
1534 1536 1537 1541 1541 1540 1537 1528 1520 1520 1518 1517 1516 1514 1511 1508 1506 1503 1501 1498 1496 1493 1491 1489 1487 1485 1483 1482 1481 1480 1479 1478 1478 1478 1477 1478 1478 1478 1478 1479 1480 1481 1482 1483 1484 1486 1488 1489 1491
1533 1535 1538 1542 1540 1542 1538 1530 1518 1518 1517 1516 1515 1512 1510 1507 1504 1501 1498 1496 1493 1490 1488 1486 1484 1482 1480 1478 1477 1476 1475 1474 1474 1473 1473 1473 1473 1474 1474 1474 1475 1476 1477 1478 1479 1480 1482 1484 1486